This is the latest recevied weather packets stored in our database for station/object N5SRF. If no packets are shown the sender has not sent any weather packets the latest 10 day(s).
| Time | Temp. | Humidity | Pressure | Rain* | Wind** | Luminosity | Snow |
|---|---|---|---|---|---|---|---|
| 1778093715 | 27.22° C | 89% | 1013.7 hPa | 0 mm | - | 162 W/m² | - |
| 1778093412 | 27.22° C | 90% | 1013.8 hPa | 0 mm | - | 175 W/m² | - |
| 1778093109 | 27.22° C | 92% | 1013.8 hPa | 0 mm | - | 307 W/m² | - |
| 1778092806 | 26.67° C | 93% | 1013.8 hPa | 0 mm | - | 449 W/m² | - |
| 1778092501 | 26.67° C | 96% | 1014 hPa | 0 mm | - | 382 W/m² | - |
| 1778092199 | 26.67° C | 95% | 1014.2 hPa | 0 mm | - | 710 W/m² | - |
| 1778091896 | 26.67° C | 97% | 1014.3 hPa | 0 mm | - | 706 W/m² | - |
| 1778091594 | 26.67° C | 96% | 1014.4 hPa | 0 mm | - | 324 W/m² | - |
| 1778091292 | 26.11° C | 96% | 1014.8 hPa | 0 mm | - | 200 W/m² | - |
| 1778090987 | 26.67° C | 95% | 1014.8 hPa | 0 mm | - | 154 W/m² | - |
| 1778090684 | 26.11° C | 95% | 1014.8 hPa | 1.78 mm | - | 181 W/m² | - |
| 1778090381 | 26.67° C | 94% | 1014.9 hPa | 3.05 mm | - | 163 W/m² | - |
| 1778090078 | 26.11° C | 93% | 1015.2 hPa | 1.27 mm | - | 123 W/m² | - |
| 1778089768 | 26.67° C | 92% | 1015.2 hPa | 0 mm | - | 58 W/m² | - |
| 1778089466 | 26.67° C | 91% | 1015.3 hPa | 0 mm | - | 50 W/m² | - |
| 1778089158 | 26.67° C | 90% | 1015.4 hPa | 0 mm | - | 37 W/m² | - |
| 1778088854 | 26.67° C | 89% | 1015.4 hPa | 0 mm | - | 42 W/m² | - |
| 1778088552 | 26.67° C | 89% | 1015.4 hPa | 0 mm | - | 44 W/m² | - |
| 1778088248 | 27.22° C | 88% | 1015.3 hPa | 0 mm | - | 46 W/m² | - |
| 1778087946 | 27.22° C | 87% | 1015.5 hPa | 0 mm | - | 48 W/m² | - |
| 1778087642 | 27.22° C | 86% | 1015.7 hPa | 0 mm | - | 70 W/m² | - |
| 1778087340 | 27.78° C | 86% | 1015.7 hPa | 0 mm | - | 43 W/m² | - |
| 1778087036 | 27.78° C | 85% | 1015.4 hPa | 0 mm | - | 80 W/m² | - |
| 1778086730 | 27.78° C | 85% | 1015.7 hPa | 0 mm | - | 88 W/m² | - |
| 1778086427 | 27.78° C | 85% | 1015.4 hPa | 0 mm | - | 111 W/m² | - |
* Rain latest hour (hover to see other rain measurements)
** Current wind speed in m/s (hover to see current wind gust speed)